Date String (YYYY-MM-DD hh:mm:ss) UTC,Instrument flags,Ambient pressure (hPa),Sample flow (lpm),Bypass flow (lpm),Sample temperature (°C),Ambient temperature (°C),ASC tube jacket temperature (°C),LED temperature (°C),Box temperature (°C),Sample RH (%),Span deviation,Mass concentration (μg/m³),Mass concentration (μg/m³),Mass concentration (μg/m³)
DateTimeUTC,F1_M11,P_M11,Q1_M11,Q2_M11,T1_M11,T2_M11,T3_M11,T4_M11,T5_M11,U1_M11,ZSPAN_M11,X0_M11,X2_M11,X1_M11
2022-07-08 03:00:00,,0831.0,4.99,0.00,29.4,28.1,00.0,38.1,31.4,33.1,0000.0,0008.34,0004.01,0003.29
2022-07-08 03:01:00,,0831.0,5.00,0.00,29.4,28.2,00.0,38.1,31.4,33.2,0000.0,0008.35,0004.00,0003.29
2022-07-08 03:02:00,,0831.0,5.00,0.00,29.4,28.3,00.0,38.2,31.5,33.1,0000.0,0008.51,0004.04,0003.29
2022-07-08 03:03:00,,0831.0,5.01,0.00,29.5,28.4,00.0,38.2,31.5,33.0,0000.0,0008.65,0004.07,0003.29
2022-07-08 03:04:00,,0831.0,5.00,0.00,29.5,28.5,00.0,38.2,31.5,32.9,0000.0,0008.60,0004.07,0003.30
2022-07-08 03:05:00,,0831.0,5.01,0.00,29.6,28.6,00.0,38.2,31.6,33.0,0000.0,0009.12,0004.08,0003.30
2022-07-08 03:06:00,,0831.1,5.00,0.00,29.6,28.6,00.0,38.3,31.6,33.2,0000.0,0009.14,0004.14,0003.32
2022-07-08 03:07:00,,0831.1,4.99,0.00,29.6,28.2,00.0,38.2,31.6,33.4,0000.0,0009.31,0004.14,0003.33
2022-07-08 03:08:00,,0831.1,4.99,0.00,29.6,27.3,00.0,38.2,31.4,33.7,0000.0,0009.50,0004.14,0003.35
2022-07-08 03:09:00,,0831.2,5.00,0.00,29.6,26.9,00.0,38.2,31.3,33.7,0000.0,0009.62,0004.17,0003.36
2022-07-08 03:10:00,,0831.2,5.01,0.00,29.5,26.8,00.0,38.2,31.1,34.0,0000.0,0009.74,0004.22,0003.37
2022-07-08 03:11:00,,0831.2,5.01,0.00,29.4,26.9,00.0,38.1,31.1,34.3,0000.0,0010.39,0004.27,0003.38
2022-07-08 03:12:00,,0831.2,5.00,0.00,29.3,27.1,00.0,38.1,31.1,34.4,0000.0,0011.23,0004.31,0003.40
2022-07-08 03:13:00,,0831.1,5.00,0.00,29.3,27.3,00.0,38.1,31.2,34.5,0000.0,0011.47,0004.33,0003.41
2022-07-08 03:14:00,,0831.2,5.00,0.00,29.3,27.5,00.0,38.1,31.2,34.3,0000.0,0013.16,0004.32,0003.43
2022-07-08 03:15:00,,0831.2,5.01,0.00,29.3,27.7,00.0,38.1,31.2,33.9,0000.0,0013.53,0004.33,0003.43
2022-07-08 03:16:00,,0831.2,5.01,0.00,29.4,27.9,00.0,38.1,31.3,33.5,0000.0,0013.48,0004.37,0003.44
2022-07-08 03:17:00,,0831.2,5.01,0.00,29.4,28.0,00.0,38.1,31.3,33.3,0000.0,0013.40,0004.35,0003.45
2022-07-08 03:18:00,,0831.2,5.00,0.00,29.4,28.1,00.0,38.2,31.4,33.1,0000.0,0013.27,0004.38,0003.45
2022-07-08 03:19:00,,0831.3,5.00,0.00,29.4,28.3,00.0,38.2,31.4,33.0,0000.0,0013.15,0004.38,0003.45
2022-07-08 03:20:00,,0831.3,4.99,0.00,29.5,28.4,00.0,38.2,31.5,32.9,0000.0,0012.98,0004.36,0003.45
2022-07-08 03:21:00,,0831.4,4.99,0.00,29.5,28.5,00.0,38.2,31.5,32.9,0000.0,0012.86,0004.31,0003.46
2022-07-08 03:22:00,,0831.5,5.00,0.00,29.5,28.5,00.0,38.2,31.5,32.9,0000.0,0012.33,0004.26,0003.47
2022-07-08 03:23:00,,0831.5,5.00,0.00,29.6,28.6,00.0,38.3,31.6,32.9,0000.0,0011.28,0004.23,0003.46
2022-07-08 03:24:00,,0831.5,5.00,0.00,29.6,28.5,00.0,38.3,31.7,33.9,0000.0,0011.18,0004.23,0003.47
2022-07-08 03:25:00,,0831.5,5.00,0.00,29.6,27.8,00.0,38.2,31.6,33.5,0000.0,0009.33,0004.23,0003.47
2022-07-08 03:26:00,,0831.5,5.00,0.00,29.6,27.4,00.0,38.2,31.5,33.4,0000.0,0008.86,0004.24,0003.48
2022-07-08 03:27:00,,0831.5,5.00,0.00,29.5,27.3,00.0,38.2,31.3,33.4,0000.0,0008.81,0004.23,0003.50
2022-07-08 03:28:00,,0831.6,5.00,0.00,29.5,27.4,00.0,38.2,31.3,33.7,0000.0,0008.77,0004.25,0003.51
2022-07-08 03:29:00,,0831.5,5.00,0.00,29.4,27.5,00.0,38.2,31.3,33.8,0000.0,0008.58,0004.23,0003.51
2022-07-08 03:30:00,,0831.5,5.00,0.00,29.4,27.7,00.0,38.2,31.3,33.8,0000.0,0008.65,0004.22,0003.51
2022-07-08 03:31:00,,0831.6,5.00,0.00,29.4,27.8,00.0,38.2,31.4,33.6,0000.0,0009.26,0004.27,0003.53
2022-07-08 03:32:00,,0831.5,4.99,0.00,29.5,28.0,00.0,38.2,31.4,33.6,0000.0,0009.35,0004.30,0003.53
2022-07-08 03:33:00,,0831.6,5.00,0.00,29.5,28.1,00.0,38.2,31.4,33.5,0000.0,0009.51,0004.34,0003.53
2022-07-08 03:34:00,,0831.5,5.00,0.00,29.5,28.2,00.0,38.2,31.5,33.5,0000.0,0009.61,0004.34,0003.53
2022-07-08 03:35:00,,0831.5,5.00,0.00,29.5,28.3,00.0,38.3,31.5,33.3,0000.0,0009.78,0004.30,0003.52
2022-07-08 03:36:00,,0831.6,5.00,0.00,29.6,28.4,00.0,38.3,31.6,33.3,0000.0,0009.98,0004.27,0003.52
2022-07-08 03:37:00,,0831.6,5.00,0.00,29.6,28.5,00.0,38.3,31.6,33.1,0000.0,0010.04,0004.26,0003.52
2022-07-08 03:38:00,,0831.6,5.00,0.00,29.6,28.6,00.0,38.3,31.7,33.2,0000.0,0009.96,0004.26,0003.51
2022-07-08 03:39:00,,0831.6,5.00,0.00,29.7,28.5,00.0,38.3,31.7,33.2,0000.0,0010.40,0004.30,0003.50
2022-07-08 03:40:00,,0831.6,5.01,0.00,29.7,27.8,00.0,38.3,31.6,33.1,0000.0,0010.43,0004.25,0003.49
2022-07-08 03:41:00,,0831.6,5.00,0.00,29.6,27.4,00.0,38.3,31.5,32.9,0000.0,0010.79,0004.24,0003.49
2022-07-08 03:42:00,,0831.6,5.00,0.00,29.6,27.4,00.0,38.3,31.4,33.2,0000.0,0010.46,0004.22,0003.49
2022-07-08 03:43:00,,0831.7,4.99,0.00,29.5,27.4,00.0,38.3,31.3,33.2,0000.0,0011.71,0004.21,0003.49
2022-07-08 03:44:00,,0831.7,4.99,0.00,29.5,27.6,00.0,38.3,31.3,33.2,0000.0,0012.03,0004.19,0003.49
2022-07-08 03:45:00,,0831.7,4.99,0.00,29.5,27.7,00.0,38.2,31.4,33.3,0000.0,0012.03,0004.25,0003.51
2022-07-08 03:46:00,,0831.7,5.01,0.00,29.5,27.9,00.0,38.3,31.4,33.4,0000.0,0011.85,0004.27,0003.50
2022-07-08 03:47:00,,0831.7,5.00,0.00,29.5,28.0,00.0,38.3,31.4,33.5,0000.0,0011.58,0004.27,0003.50
2022-07-08 03:48:00,,0831.7,4.99,0.00,29.5,28.2,00.0,38.3,31.4,33.4,0000.0,0011.54,0004.30,0003.51
2022-07-08 03:49:00,,0831.8,5.00,0.00,29.5,28.3,00.0,38.3,31.5,33.1,0000.0,0011.68,0004.31,0003.51
2022-07-08 03:50:00,,0831.8,5.00,0.00,29.6,28.4,00.0,38.3,31.5,33.2,0000.0,0011.06,0004.25,0003.50
2022-07-08 03:51:00,,0831.9,5.00,0.00,29.6,28.5,00.0,38.3,31.6,33.3,0000.0,0010.95,0004.29,0003.52
2022-07-08 03:52:00,,0832.0,5.00,0.00,29.6,28.6,00.0,38.3,31.6,33.2,0000.0,0010.61,0004.31,0003.52
2022-07-08 03:53:00,,0832.0,5.01,0.00,29.7,28.6,00.0,38.4,31.7,33.2,0000.0,0010.57,0004.32,0003.52
2022-07-08 03:54:00,,0832.0,5.00,0.00,29.7,28.5,00.0,38.3,31.7,33.0,0000.0,0009.79,0004.28,0003.50
2022-07-08 03:55:00,,0832.1,5.00,0.00,29.7,27.7,00.0,38.3,31.6,33.0,0000.0,0009.50,0004.25,0003.49
2022-07-08 03:56:00,,0832.1,4.99,0.00,29.6,27.0,00.0,38.2,31.4,33.2,0000.0,0009.65,0004.21,0003.48
2022-07-08 03:57:00,,0832.0,4.99,0.00,29.6,26.8,00.0,38.2,31.3,33.2,0000.0,0009.55,0004.19,0003.48
2022-07-08 03:58:00,,0832.1,5.01,0.00,29.5,26.8,00.0,38.2,31.2,33.3,0000.0,0009.46,0004.15,0003.47
2022-07-08 03:59:00,,0832.1,5.00,0.00,29.4,27.0,00.0,38.2,31.2,33.6,0000.0,0009.47,0004.15,0003.47
